Location: Home
(42.5358°N, 72.7383°W)
Time: 09:35:36
(UTC-05:00)

S-56A Canister/Altair - Pass Details

Date: 04 December 2021
Orbit: 634 x 2499 km, 38.9° (Epoch: 22 January)

Event Time Altitude Azimuth Distance (km) Brightness Sun altitude
Rises 00:00:17 0° 241° (WSW) 5,265 - -69.3°
Reaches altitude 10° 00:04:18 10° 237° (WSW) 3,976 - -69.2°
Maximum altitude 00:13:42 52° 165° (SSE) 1,502 - -68.6°
Drops below altitude 10° 00:19:57 10° 90° (E) 2,678 - -68.2°
Sets 00:22:11 0° 85° (E) 3,448 - -68.0°
